This demonstration page uses our WeatherBlox Daily Observations layout. Learn more.

Left ArrowRight Arrow

36.17497, -115.13722

Hourly Observations for April 29, 2016

Temp ( °F °C ) Dew Point ( °F °C ) Humidity (%) Winds ( mph kmh ) Pressure ( in mb ) Visibility ( mi km ) Precip ( " mm )
12:53 am 00:53 Mostly Cloudy 57 13.9 46 7.8 67 67 NNW 6 9 29.86 1011 10 16.0934 0 0
1:53 am 01:53 Clear 56 13.3 46 7.8 70 70 NNE 6 9 29.85 1011 10 16.0934 0 0
2:53 am 02:53 Mostly Clear 56 13.3 45 7.2 67 67 NW 14 22 29.85 1011 10 16.0934 0 0
3:53 am 03:53 Partly Cloudy 56 13.3 43 6.1 62 62 NNW 10 17 29.86 1011 10 16.0934 0 0
4:53 am 04:53 Clear 55 12.8 43 6.1 64 64 WSW 5 7 29.87 1012 10 16.0934 0 0
5:53 am 05:53 Sunny 53 11.7 43 6.1 69 69 N 6 9 29.88 1012 10 16.0934 0 0
6:53 am 06:53 Sunny 54 12.2 44 6.7 69 69 N 6 9 29.91 1013 10 16.0934 0 0
7:53 am 07:53 Sunny 59 15 43 6.1 56 56 NW 13 20 29.93 1013 10 16.0934 0 0
8:00 am 08:00 Sunny 61 16 43 6 52 52 NW 12 19 29.88 1012 10 16.0934 0 0
8:53 am 08:53 Sunny 58 14.4 46 7.8 65 65 SE 3 6 29.94 1014 10 16.0934 0 0
9:53 am 09:53 Sunny 64 17.8 44 6.7 48 48 S 7 11 29.93 1014 10 16.0934 0 0
10:53 am 10:53 Sunny 67 19.4 44 6.7 44 44 E 7 11 29.92 1013 10 16.0934 0 0
11:53 am 11:53 Sunny 69 20.6 40 4.4 35 35 VRB 6 9 29.9 1013 10 16.0934 0 0
12:53 pm 12:53 Mostly Sunny 71 21.7 41 5 34 34 SSE 9 15 29.88 1012 10 16.0934 0 0
1:53 pm 13:53 Mostly Cloudy 72 22.2 37 2.8 28 28 W 9 15 29.85 1011 10 16.0934 0 0
2:53 pm 14:53 Partly Cloudy 73 22.8 37 2.8 27 27 VRB 7 11 29.81 1010 10 16.0934 0 0
3:53 pm 15:53 Mostly Cloudy 73 22.8 34 1.1 24 24 SSW 6 9 29.78 1009 10 16.0934 0 0
4:53 pm 16:53 Partly Cloudy 75 23.9 35 1.7 23 23 S 6 9 29.75 1007 10 16.0934 0 0
5:53 pm 17:53 Partly Cloudy 75 23.9 33 0.6 22 22 SSE 12 19 29.73 1007 10 16.0934 0 0
6:53 pm 18:53 Mostly Sunny 73 22.8 40 4.4 30 30 SE 13 20 29.71 1006 10 16.0934 0 0
7:53 pm 19:53 Clear 72 22.2 35 1.7 26 26 SW 7 11 29.7 1006 10 16.0934 0 0
8:53 pm 20:53 Clear 71 21.7 31 -0.6 23 23 W 3 6 29.71 1006 10 16.0934 0 0
9:53 pm 21:53 Clear 67 19.4 39 3.9 36 36 NNE 7 11 29.7 1006 10 16.0934 0 0
10:53 pm 22:53 Mostly Cloudy 67 19.4 40 4.4 37 37 E 9 15 29.7 1006 10 16.0934 0 0
11:53 pm 23:53 Mostly Cloudy 66 18.9 39 3.9 37 37 Calm 29.72 1006 10 16.0934 0 0

Powered by AerisWeather